Change the Weather History Date:

Wednesday, November 7, 2012

  Actual Average Record
Temperature  
Mean Temperature 42 °F -  
Max Temperature 46 °F 59 °F 77 °F (1996)
Min Temperature 37 °F 38 °F 24 °F (1998)
Degree Days  
Heating Degree Days 24    
Moisture  
Dew Point 39 °F    
Average Humidity 86    
Maximum Humidity 100    
Minimum Humidity 71    
Precipitation  
Precipitation 0.00 in - - ()
Sea Level Pressure  
Sea Level Pressure 29.98 in    
Wind  
Wind Speed 2 mph (NNW)    
Max Wind Speed 7 mph    
Max Gust Speed -    
Visibility 8 miles    
Events Rain    
Averages and records for this station are not official NWS values.
T = Trace of Precipitation, MM = Missing Value Source: NWS Daily Summary

Daily Weather History Graph

Daily Weather History Graph

Search for Another Location

Airport or City:

Trip Planner

Search our weather history database for the weather conditions in past years. The results will help you decide how hot, cold, wet, or windy it might be!

Date:

Astronomy

Nov. 07, 2012 Rise Set
Actual Time 7:09 AM EST 5:34 PM EST
Civil Twilight 6:42 AM EST 6:01 PM EST
Nautical Twilight 6:11 AM EST 6:32 PM EST
Astronomical Twilight 5:40 AM EST 7:03 PM EST
Moon 12:11 AM EST (11/7) 1:34 PM EST (11/7)
Length of Visible Light 11h 19m
Length of Day
10h 25m
Last Quarter, 43% of the Moon is Illuminated
Nov 7
Last Quarter
Nov 13
New
Nov 20
First Quarter
Nov 28
Full
Dec 6
Last Quarter

Hourly Weather History & Observations

Time (EST) Temp. Windchill Dew Point Humidity Pressure Visibility Wind Dir Wind Speed Gust Speed Precip Events Conditions
12:15 AM 42.8 °F 38.6 °F 37.4 °F 81% 29.94 in 10.0 mi West 6.9 mph - N/A   Drizzle
12:35 AM 42.8 °F 39.3 °F 37.4 °F 81% 29.93 in 10.0 mi WNW 5.8 mph - N/A   Overcast
12:55 AM 42.8 °F 41.1 °F 37.4 °F 81% 29.93 in 10.0 mi WNW 3.5 mph - N/A   Overcast
1:15 AM 42.8 °F - 37.4 °F 81% 29.93 in 10.0 mi Calm Calm - N/A   Overcast
1:35 AM 41.0 °F - 37.4 °F 87% 29.92 in 10.0 mi Calm Calm - N/A Rain Rain
1:55 AM 41.0 °F - 37.4 °F 87% 29.92 in 10.0 mi Calm Calm - N/A Rain Rain
2:15 AM 41.0 °F 39.0 °F 39.2 °F 93% 29.92 in 7.0 mi WSW 3.5 mph - N/A Rain Rain
2:35 AM 41.0 °F 39.0 °F 39.2 °F 93% 29.91 in 7.0 mi West 3.5 mph - N/A   Drizzle
2:55 AM 41.0 °F - 39.2 °F 93% 29.91 in 7.0 mi Calm Calm - N/A Rain Rain
3:15 AM 41.0 °F - 39.2 °F 93% 29.91 in 5.0 mi Calm Calm - N/A Rain Light Rain
3:35 AM 41.0 °F - 39.2 °F 93% 29.90 in 7.0 mi Calm Calm - N/A   Drizzle
3:55 AM 41.0 °F - 39.2 °F 93% 29.90 in 7.0 mi Calm Calm - N/A Rain Rain
4:15 AM 41.0 °F - 41.0 °F 100% 29.90 in 5.0 mi Calm Calm - N/A Rain Light Rain
4:35 AM 41.0 °F - 41.0 °F 100% 29.90 in 4.0 mi Calm Calm - N/A   Drizzle
4:55 AM 41.0 °F - 41.0 °F 100% 29.90 in 7.0 mi Calm Calm - N/A   Drizzle
5:15 AM 41.0 °F - 41.0 °F 100% 29.90 in 5.0 mi Calm Calm - N/A Rain Rain
5:35 AM 41.0 °F - 41.0 °F 100% 29.90 in 5.0 mi Calm Calm - N/A Rain Rain
5:55 AM 41.0 °F - 41.0 °F 100% 29.90 in 4.0 mi Calm Calm - N/A Rain Light Rain
6:15 AM 41.0 °F - 41.0 °F 100% 29.90 in 4.0 mi Calm Calm - N/A Rain Light Rain
6:35 AM 41.0 °F - 41.0 °F 100% 29.91 in 5.0 mi Calm Calm - N/A Rain Rain
6:55 AM 41.0 °F - 39.2 °F 93% 29.91 in 5.0 mi Calm Calm - N/A   Drizzle
7:15 AM 41.0 °F - 41.0 °F 100% 29.91 in 5.0 mi Calm Calm - N/A   Light Drizzle
7:35 AM 41.0 °F - 41.0 °F 100% 29.92 in 4.0 mi Calm Calm - N/A   Drizzle
7:55 AM 41.0 °F - 41.0 °F 100% 29.93 in 4.0 mi Calm Calm - N/A   Overcast
8:15 AM 41.0 °F 39.0 °F 41.0 °F 100% 29.93 in 4.0 mi North 3.5 mph - N/A   Overcast
8:35 AM 42.8 °F 41.1 °F 41.0 °F 93% 29.94 in 5.0 mi NNW 3.5 mph - N/A   Overcast
8:55 AM 42.8 °F - 41.0 °F 93% 29.94 in 7.0 mi Calm Calm - N/A   Overcast
9:15 AM 42.8 °F - 41.0 °F 93% 29.94 in 7.0 mi Calm Calm - N/A   Overcast
9:35 AM 42.8 °F - 41.0 °F 93% 29.95 in 7.0 mi Calm Calm - N/A   Drizzle
9:55 AM 42.8 °F 41.1 °F 39.2 °F 87% 29.95 in 10.0 mi North 3.5 mph - N/A   Light Drizzle
10:15 AM 42.8 °F - 41.0 °F 93% 29.95 in 7.0 mi Calm Calm - N/A   Light Drizzle
10:35 AM 42.8 °F - 41.0 °F 93% 29.96 in 10.0 mi Calm Calm - N/A   Drizzle
10:55 AM 42.8 °F 41.1 °F 39.2 °F 87% 29.96 in 10.0 mi NE 3.5 mph - N/A   Overcast
11:15 AM 44.6 °F 43.1 °F 41.0 °F 87% 29.96 in 10.0 mi NE 3.5 mph - N/A   Light Drizzle
11:35 AM 42.8 °F 40.1 °F 39.2 °F 87% 29.97 in 10.0 mi NNE 4.6 mph - N/A   Light Drizzle
11:55 AM 42.8 °F 40.1 °F 41.0 °F 93% 29.96 in 10.0 mi NE 4.6 mph - N/A   Light Drizzle
12:15 PM 44.6 °F 43.1 °F 41.0 °F 87% 29.96 in 10.0 mi North 3.5 mph - N/A Rain Light Rain
12:35 PM 44.6 °F 41.4 °F 41.0 °F 87% 29.96 in 10.0 mi NNW 5.8 mph - N/A   Overcast
12:55 PM 44.6 °F 43.1 °F 39.2 °F 81% 29.95 in 10.0 mi NW 3.5 mph - N/A   Overcast
1:15 PM 44.6 °F 41.4 °F 39.2 °F 81% 29.95 in 10.0 mi NW 5.8 mph - N/A   Overcast
1:35 PM 44.6 °F 41.4 °F 37.4 °F 76% 29.95 in 10.0 mi NNE 5.8 mph - N/A   Overcast
1:55 PM 44.6 °F 41.4 °F 37.4 °F 76% 29.95 in 10.0 mi North 5.8 mph - N/A   Overcast
2:15 PM 44.6 °F 42.2 °F 37.4 °F 76% 29.96 in 10.0 mi North 4.6 mph - N/A   Overcast
2:35 PM 44.6 °F 41.4 °F 37.4 °F 76% 29.96 in 10.0 mi NW 5.8 mph - N/A   Overcast
2:55 PM 46.4 °F 44.3 °F 37.4 °F 71% 29.96 in 10.0 mi NW 4.6 mph - N/A   Overcast
3:15 PM 46.4 °F 43.5 °F 37.4 °F 71% 29.96 in 10.0 mi NNW 5.8 mph - N/A   Overcast
3:35 PM 44.6 °F 41.4 °F 37.4 °F 76% 29.97 in 10.0 mi NW 5.8 mph - N/A   Overcast
3:55 PM 44.6 °F 40.7 °F 37.4 °F 76% 29.98 in 10.0 mi NNW 6.9 mph - N/A   Overcast
4:15 PM 44.6 °F 41.4 °F 37.4 °F 76% 29.99 in 10.0 mi NNE 5.8 mph - N/A   Overcast
4:35 PM 44.6 °F 43.1 °F 37.4 °F 76% 30.01 in 10.0 mi North 3.5 mph - N/A   Overcast
4:55 PM 44.6 °F - 37.4 °F 76% 30.02 in 10.0 mi Calm Calm - N/A   Overcast
5:15 PM 44.6 °F 41.4 °F 37.4 °F 76% 30.02 in 10.0 mi North 5.8 mph - N/A   Overcast
5:35 PM 44.6 °F 41.4 °F 37.4 °F 76% 30.03 in 10.0 mi North 5.8 mph - N/A   Overcast
5:55 PM 44.6 °F 42.2 °F 37.4 °F 76% 30.03 in 10.0 mi NNW 4.6 mph - N/A   Overcast
6:15 PM 44.6 °F 42.2 °F 37.4 °F 76% 30.04 in 10.0 mi NW 4.6 mph - N/A   Overcast
6:35 PM 44.6 °F 43.1 °F 37.4 °F 76% 30.05 in 10.0 mi NNW 3.5 mph - N/A   Overcast
6:55 PM 44.6 °F - 37.4 °F 76% 30.06 in 10.0 mi Calm Calm - N/A   Overcast
7:15 PM 44.6 °F - 37.4 °F 76% 30.08 in 10.0 mi Calm Calm - N/A   Overcast
7:35 PM 44.6 °F 43.1 °F 37.4 °F 76% 30.08 in 10.0 mi NNW 3.5 mph - N/A   Overcast
7:55 PM 44.6 °F - 37.4 °F 76% 30.08 in 10.0 mi Calm Calm - N/A   Overcast
8:15 PM 44.6 °F - 37.4 °F 76% 30.08 in 10.0 mi Calm Calm - N/A   Overcast
8:35 PM 44.6 °F - 37.4 °F 76% 30.08 in 10.0 mi Calm Calm - N/A   Overcast
8:55 PM 42.8 °F - 37.4 °F 81% 30.09 in 10.0 mi Calm Calm - N/A   Overcast
9:15 PM 42.8 °F - 37.4 °F 81% 30.10 in 10.0 mi Calm Calm - N/A   Overcast
9:35 PM 42.8 °F - 37.4 °F 81% 30.10 in 10.0 mi Calm Calm - N/A   Mostly Cloudy
9:55 PM 42.8 °F - 37.4 °F 81% 30.11 in 10.0 mi Calm Calm - N/A   Scattered Clouds
10:15 PM 41.0 °F - 37.4 °F 87% 30.11 in 10.0 mi Calm Calm - N/A   Clear
10:35 PM 41.0 °F - 37.4 °F 87% 30.11 in 10.0 mi Calm Calm - N/A   Clear
10:55 PM 41.0 °F - 37.4 °F 87% 30.11 in 10.0 mi Calm Calm - N/A   Clear
11:15 PM 41.0 °F - 35.6 °F 81% 30.11 in 10.0 mi Calm Calm - N/A   Clear
11:35 PM 37.4 °F - 35.6 °F 93% 30.11 in 7.0 mi Calm Calm - N/A   Clear
11:55 PM 37.4 °F - 35.6 °F 93% 30.11 in 4.0 mi Calm Calm - N/A   Clear